048  
ASUS44 KBMX 131910  
RWRAL  
 
ALABAMA REGIONAL WEATHER ROUNDUP  
NATIONAL WEATHER SERVICE BIRMINGHAM AL  
200 PM CDT THU AUG 13 2020  
 
NOTE: "FAIR" INDICATES FEW OR NO CLOUDS BELOW 12,000 FEET  
WITH NO SIGNIFICANT WEATHER AND/OR S TO VISIBILITY
.  
 
THE REMARK "TC" DENOTES TEMPERATURE IN DEGREES CELSIUS.  
 
ALZ001>011-014-016>018-020-132000-  
NORTH ALABAMA  
 
CITY SKY/WX TMP DP RH WIND PRES REMARKS
 
MUSCLE SHOALS MOSUNNY 92 69 47 VRB3 29.96F HX 97  
HUNTSVILLE MOSUNNY 92 71 50 S8 29.98F HX 98  
DECATUR MOSUNNY 92 68 45 SW5 29.98F HX 96  
HALEYVILLE FAIR 91 70 49 S8 30.01F HX 96  
GADSDEN SUNNY 90 73 57 S3 29.98F HX 98  

 
 
ALZ012-013-022-023-030>036-040>044-132000-  
WEST CENTRAL ALABAMA  
 
CITY SKY/WX TMP DP RH WIND PRES REMARKS
 
TUSCALOOSA MOSUNNY 92 74 55 SW8 29.96F HX 101  
DEMOPOLIS FAIR 84 70 61 W22G28 29.99S  

 
 
ALZ015-024>026-033>036-041>044-132000-  
CENTRAL ALABAMA  
 
CITY SKY/WX TMP DP RH WIND PRES REMARKS
 
BIRMINGHAM MOSUNNY 92 71 50 S5 30.00F HX 98  
MONTGOMERY MOSUNNY 94 75 54 VRB3 29.97F HX 105  
SHELBY CO ARPT MOSUNNY 91 73 55 VRB3 29.97F HX 99  
MAXWELL AFB MOSUNNY 93 74 52 S7 29.96F HX 103  
GREENVILLE FAIR 94 64 37 VRB7 29.97F HX 95  
SELMA FAIR 91 73 55 VRB7 29.96F HX 100  
PRATTVILLE PTSUNNY 90 74 58 S8 29.96F HX 99  
BESSEMER FAIR 90 74 59 S6 29.99F HX 99  
TALLADEGA FAIR 92 73 54 CALM 29.98F HX 101  
PELL CITY SUNNY 91 75 59 W5 29.98F HX 102  
MARION NOT AVBL  
SYLACAUGA CLOUDY 92 72 51 CALM 29.99F HX 99  

 
 
ALZ019-021-028-029-037-038-045>048-132000-  
EAST CENTRAL ALABAMA  
 
CITY SKY/WX TMP DP RH WIND PRES REMARKS
 
ANNISTON MOSUNNY 93 73 52 SW5 29.98F HX 102  
ALEXANDER CITY MOSUNNY 90 72 55 S3 29.99F HX 97  
AUBURN MOSUNNY 90 75 61 SW7 30.00F HX 100  

 
 
ALZ051>064-132000-  
SOUTHWEST ALABAMA  
 
CITY SKY/WX TMP DP RH WIND PRES REMARKS
 
MOBILE PTSUNNY 90 73 57 S8 29.98F HX 98  
BROOKLEY FIELD MOSUNNY 92 77 61 S6 29.99F HX 105  
EVERGREEN PTSUNNY 95 71 45 VRB5 29.97F HX 102  

 
 
ALZ049-050-065>069-132000-  
SOUTHEAST ALABAMA  
 
CITY SKY/WX TMP DP RH WIND PRES REMARKS
 
DOTHAN MOSUNNY 92 72 51 CALM 30.01F HX 99  
OZARK SUNNY 91 73 55 S5 29.97F HX 100  
TROY MOSUNNY 93 73 52 CALM 29.98F HX 102  
EUFAULA NOT AVBL  

 
 
 
CLICK HERE TO GO TO PREVIOUS BULLETINS.

The Nexlab AL Page Main Text Page